Location: Martz Observatory
(42.0083°N, 79.0667°W)
Time: 23:40:18
(UTC-04:00)

Meteor 1-23 Rocket - Visible Passes

Search period start: 25 June 2017 00:00
Search period end: 05 July 2017 00:00
Orbit: 841 x 885 km, 81.3° (Epoch: 25 June)

Date Brightness Start Highest point End Pass type
(mag) Time Alt. Az. Time Alt. Az. Time Alt. Az.
25 Jun 6.4 03:57:38 10° NNE 04:02:26 26° ENE 04:07:11 10° SE visible
26 Jun 6.4 03:49:18 10° NNE 03:54:05 26° ENE 03:58:49 10° SE visible
27 Jun 6.4 03:40:59 10° NNE 03:45:45 25° ENE 03:50:27 10° SE visible
28 Jun 6.4 03:32:39 10° NNE 03:37:24 25° ENE 03:42:05 10° ESE visible
29 Jun 6.4 03:24:20 10° NNE 03:29:03 25° ENE 03:33:42 10° ESE visible
29 Jun 4.6 05:06:56 10° NNW 05:12:27 46° W 05:17:54 10° SSW visible
30 Jun 6.3 03:16:02 10° NNE 03:20:43 25° ENE 03:25:20 10° ESE visible
30 Jun 4.6 04:58:36 10° NNW 05:04:07 47° W 05:09:35 10° SSW visible
01 Jul 6.3 03:07:42 10° NNE 03:12:22 24° ENE 03:16:58 10° ESE visible
01 Jul 4.6 04:50:16 10° NNW 04:55:48 47° W 05:01:15 10° SSW visible
02 Jul 6.3 02:59:23 10° NNE 03:04:01 24° ENE 03:08:35 10° ESE visible
02 Jul 4.6 04:41:55 10° NNW 04:47:27 48° W 04:52:55 10° SSW visible
03 Jul 6.3 02:51:04 10° NNE 02:55:40 24° ENE 03:00:13 10° ESE visible
03 Jul 4.6 04:33:35 10° NNW 04:39:07 48° W 04:44:36 10° SSW visible
04 Jul 6.3 02:42:45 10° NNE 02:47:20 24° ENE 02:51:51 10° ESE visible
04 Jul 4.6 04:25:15 10° NNW 04:30:47 49° W 04:36:15 10° SSW visible
